{"data":{"norad_id":59583,"epoch":"2026-09-21T12:20:03.926112Z","epoch_age_seconds":80584,"freshness":"FRESH","line1":"1 59583U 24076V   26264.51393433 -.00000352  00000+0 -32610-5 0  9998","line2":"2 59583  43.0037 342.8846 0001150 273.4836  86.5884 15.27575100136365","mean_motion":15.275751,"eccentricity":0.000115,"inclination_deg":43.0037,"raan_deg":342.8846,"arg_perigee_deg":273.4836,"mean_anomaly_deg":86.5884,"bstar":-3.261e-6,"rev_number":13636,"period_min":94.267051092938,"perigee_km":482.27473035327,"apogee_km":483.85280653001,"semimajor_km":6861.2007684416,"source":"CELESTRAK","updated_at":"2026-09-22T09:00:49.005667Z"}}